[[{"header":{"parameterUnit":"m.s-1","parameterCategory":2,"la1":30.2991,"la2":30.254,"lo1":-89.0895,"lo2":-89.0444,"dy":0.0017,"dx":0.0017,"nx":28,"ny":28,"refTime":"2024-04-11T21:00:00:Z","depth":"0","parameterNumber":2,"parameterNumberName":"U-component_of_CURRENTS"},"data":[0,0,0,0,0,0,0,0,0,0,0,0,0,0,0,0,0,0,0,0,0,0,0,0,0,0,0,0,0,0,0,0,0,0,0,0,0,0,0,0,0,0,0,0,0,0,0,0,0,0,0,0,0,0,0,0,0,0,0.2959,0.2959,0,0.2984,0.2984,0.2984,0.2986,0.2986,0.2986,0.2986,0.3019,0.302,0.3021,0,0,0,0,0,0,0,0,0,0,0,0,0,0.294,0.294,0.2959,0.2959,0.296,0.2984,0.2984,0.2984,0.2987,0.2986,0.2986,0.2986,0.3019,0.302,0.3021,0,0,0,0,0,0,0,0,0,0,0,0,0,0.2954,0.294,0.2959,0.2964,0.2965,0.2984,0.2984,0.2984,0.2987,0.2986,0.2986,0.2986,0.3018,0.302,0.3022,0.3037,0,0,0.3027,0.3027,0,0,0,0,0,0,0,0,0.2953,0.2954,0.2963,0.2964,0.2965,0.2982,0.299,0.3003,0.2987,0.2978,0.2986,0.2986,0.3008,0.3011,0.3015,0.3039,0.304,0.3027,0.3028,0.3028,0.3029,0,0,0,0,0,0,0,0.2952,0.2953,0.2968,0.2963,0.2964,0.2975,0.2976,0.2992,0.2994,0.2978,0.2979,0.2983,0.3009,0.3013,0.3016,0.3041,0.3027,0.3028,0.3029,0.303,0.3118,0.312,0,0,0,0,0,0,0.2949,0.2952,0.2967,0.2969,0.2959,0.2975,0.2977,0.2976,0.2994,0.2996,0.2983,0.2983,0.3011,0.3014,0.3017,0.3064,0.3028,0.303,0.3031,0.3117,0.3119,0.312,0,0,0,0,0,0,0.2949,0.295,0.2966,0.2962,0.2965,0.2976,0.2976,0.2977,0.2986,0.2997,0.3,0.2991,0.3011,0.3015,0.304,0.3064,0.3031,0.3032,0.3115,0.3118,0.3119,0.3141,0,0,0,0,0,0,0.2948,0.295,0.2954,0.2962,0.2965,0.2979,0.2976,0.2978,0.2989,0.2989,0.3005,0.3007,0.3011,0.3038,0.3042,0.3066,0.3033,0.3114,0.3116,0.3119,0.3138,0.3143,0.3148,0,0,0,0,0,0.2947,0.2952,0.2953,0.2956,0.2968,0.2979,0.2982,0.2988,0.299,0.2995,0.301,0.3007,0.3058,0.304,0.3045,0.307,0.3112,0.3116,0.3119,0.3136,0.3142,0.3148,0,0,0,0,0,0,0.2943,0.2953,0.2955,0.2962,0.2971,0.298,0.2987,0.2992,0.3008,0.3008,0.302,0.3024,0.3059,0.3063,0.3043,0.3105,0.3087,0.3091,0.3099,0.3105,0.3109,0.3051,0.3035,0,0,0,0,0,0.2944,0.2954,0.2961,0.2968,0.2971,0.298,0.2987,0.2989,0.3003,0.3009,0.3023,0.3044,0.3076,0.3087,0.3109,0.3137,0.312,0.3159,0.3163,0.3167,0.3125,0.3133,0.3134,0.313,0.313,0.313,0,0,0.2943,0.2953,0.2957,0.2969,0.2974,0.2972,0.2983,0.2991,0.2998,0.3011,0.303,0.306,0.3088,0.3124,0.314,0.3128,0.3168,0.3171,0.3174,0.3128,0.3136,0.3136,0.3136,0.3133,0.3132,0.3132,0,0,0.2933,0.2954,0.2946,0.2955,0.2964,0.2974,0.2977,0.2988,0.3004,0.3025,0.3049,0.3082,0.312,0.3145,0.3164,0.3205,0.3195,0.3232,0.3203,0.3214,0.3213,0.3212,0.322,0.3219,0.3231,0.3231,0.3231,0,0.2931,0.2921,0.2947,0.2939,0.2947,0.2973,0.2961,0.2985,0.3007,0.3019,0.3029,0.3092,0.3123,0.3166,0.3182,0.3212,0.3211,0.3181,0.3216,0.3215,0.3213,0.3221,0.322,0.3232,0.3232,0.3232,0.3232,0,0.2897,0.29,0.29,0.29,0.2915,0.2916,0.2945,0.2967,0.2992,0.3007,0.3053,0.3097,0.3127,0.3165,0.3182,0.3205,0.3208,0.3224,0.3194,0.3214,0.3223,0.3221,0.3234,0.3234,0.3233,0.3233,0,0,0.2852,0.2873,0.2868,0.2873,0.2896,0.2905,0.2929,0.2953,0.2978,0.3002,0.3032,0.3084,0.3101,0.3122,0.317,0.3174,0.3189,0.3186,0.3186,0.3177,0.3206,0.3202,0.32,0.3213,0.3212,0.3212,0.3227,0,0.2811,0.2801,0.2819,0.2817,0.2817,0.2861,0.289,0.2921,0.2966,0.301,0.3048,0.3102,0.3094,0.3138,0.3131,0.3197,0.318,0.3182,0.3199,0.3199,0.3179,0.3196,0.3137,0.3143,0.3225,0.3224,0.3224,0,0.2751,0.2762,0.2753,0.2796,0.2799,0.2808,0.2868,0.2898,0.2965,0.3003,0.303,0.3078,0.3114,0.3113,0.3138,0.3143,0.3145,0.3169,0.3171,0.3141,0.319,0.3132,0.3137,0.3107,0.3221,0.3221,0.3222,0,0.2705,0.2713,0.2716,0.2726,0.2774,0.2789,0.2821,0.2885,0.2929,0.3009,0.3053,0.3081,0.3138,0.3126,0.3167,0.3159,0.3191,0.3201,0.3179,0.318,0.3113,0.3109,0.3066,0.3163,0.3163,0.3163,0.3163,0,0.2658,0.2656,0.2699,0.2702,0.2719,0.2765,0.28,0.285,0.2928,0.2977,0.3047,0.3101,0.314,0.3177,0.3171,0.3176,0.3191,0.315,0.3175,0.3125,0.3122,0.3079,0.3062,0.3164,0.3164,0.3164,0.3163,0,0.2604,0.263,0.2638,0.2684,0.2699,0.2715,0.2782,0.2813,0.2905,0.2981,0.3013,0.3124,0.3186,0.3215,0.3243,0.3206,0.3137,0.3196,0.3135,0.315,0.3087,0.3073,0.286,0.2784,0.3164,0.3164,0.3164,0,0.2577,0.2577,0.2619,0.2622,0.264,0.2673,0.2696,0.2786,0.2833,0.2988,0.3024,0.3134,0.3193,0.3247,0.3227,0.3214,0.3128,0.3133,0.3086,0.3052,0.3056,0.2909,0.285,0.3023,0.3022,0.3021,0.302,0,0.2527,0.2545,0.2554,0.2564,0.2581,0.2603,0.2654,0.2688,0.2807,0.2887,0.2994,0.3064,0.3162,0.3155,0.3171,0.3147,0.3017,0.311,0.3087,0.293,0.2751,0.2703,0.3054,0.301,0.3011,0.3012,0.3013,0.3013,0.2486,0.2477,0.2488,0.2488,0.2504,0.2517,0.2505,0.2585,0.265,0.2753,0.289,0.2965,0.3083,0.3112,0.3064,0.3,0.2934,0.294,0.2926,0.2778,0.2681,0.3006,0.2989,0.299,0.299,0.2991,0.2992,0,0.2414,0.2406,0.2406,0.2394,0.2368,0.2416,0.2452,0.2434,0.2468,0.2623,0.2707,0.2844,0.2878,0.2931,0.2941,0.2853,0.2681,0.2792,0.2583,0.2535,0.2854,0.283,0.2764,0.2764,0.2764,0.2764,0.2764,0.2764,0.2374,0.2333,0.2328,0.2256,0.2244,0.2185,0.2181,0.2194,0.2268,0.2354,0.2442,0.2557,0.2764,0.2875,0.2826,0.2756,0.2567,0.2446,0.2416,0.27,0.2712,0.2724,0.2698,0.2604,0.2604,0.2002,0.1997,0.1994]},{"header":{"parameterUnit":"m.s-1","parameterCategory":2,"la1":30.2991,"la2":30.254,"lo1":-89.0895,"lo2":-89.0444,"dy":0.0017,"dx":0.0017,"nx":28,"ny":28,"refTime":"2024-04-11T21:00:00:Z","depth":"0","parameterNumber":3,"parameterNumberName":"V-component_of_CURRENTS"},"data":[0,0,0,0,0,0,0,0,0,0,0,0,0,0,0,0,0,0,0,0,0,0,0,0,0,0,0,0,0,0,0,0,0,0,0,0,0,0,0,0,0,0,0,0,0,0,0,0,0,0,0,0,0,0,0,0,0,0,0.0095,0.0095,0,0.0061,0.006,0.0059,0.0017,0.0017,0.0016,0.0016,-0.0056,-0.0058,-0.0059,0,0,0,0,0,0,0,0,0,0,0,0,0,0.0075,0.0076,0.0095,0.0095,0.0095,0.0061,0.006,0.0059,0.0017,0.0017,0.0016,0.0016,-0.0056,-0.0058,-0.006,0,0,0,0,0,0,0,0,0,0,0,0,0,0.0063,0.0076,0.0095,0.0073,0.0071,0.0061,0.006,0.0059,0.0017,0.0017,0.0016,0.0016,-0.0055,-0.0057,-0.006,-0.0067,0,0,-0.0067,-0.0069,0,0,0,0,0,0,0,0,0.0064,0.0063,0.0076,0.0075,0.0072,0.0046,0.0026,0.0016,0.0017,0.0033,0.0016,0.0016,-0.0022,-0.0028,-0.0039,-0.007,-0.0073,-0.0068,-0.0069,-0.007,-0.0071,0,0,0,0,0,0,0,0.0065,0.0064,0.0077,0.0076,0.0074,0.0048,0.0046,0.0024,0.0004,0.0032,0.003,0.0032,-0.0024,-0.0036,-0.0041,-0.0074,-0.0068,-0.007,-0.0071,-0.0072,-0.0117,-0.0117,0,0,0,0,0,0,0.0081,0.0066,0.0079,0.0077,0.0072,0.0049,0.0047,0.0052,0.0005,-0.0001,0.0033,0.0031,-0.0032,-0.0038,-0.0043,-0.0039,-0.007,-0.0073,-0.0074,-0.0118,-0.0117,-0.0117,0,0,0,0,0,0,0.008,0.0082,0.008,0.0073,0.0072,0.0051,0.0056,0.0051,0.0044,0.0007,-0.0,0.0032,-0.0032,-0.004,-0.0054,-0.0043,-0.0074,-0.0076,-0.0118,-0.0117,-0.0117,-0.004,0,0,0,0,0,0,0.008,0.0082,0.0089,0.0075,0.0073,0.0087,0.0057,0.0051,0.0049,0.0045,0.0004,-0.0003,-0.0033,-0.005,-0.0057,-0.0047,-0.0078,-0.0118,-0.0118,-0.0117,-0.0043,-0.0037,-0.0032,0,0,0,0,0,0.0079,0.0097,0.009,0.0092,0.0084,0.0088,0.0085,0.0065,0.0049,0.0055,0.0025,-0.0002,-0.0052,-0.0052,-0.0059,-0.005,-0.0119,-0.0118,-0.0117,-0.0046,-0.0038,-0.0032,0,0,0,0,0,0,0.0094,0.0095,0.0086,0.0103,0.0101,0.0083,0.0089,0.0073,0.0053,0.0047,0.0006,-0.0003,-0.0014,-0.0042,-0.0041,-0.0063,-0.0091,-0.0092,-0.0034,-0.0027,-0.0022,0.001,-0.008,0,0,0,0,0,0.0102,0.0114,0.0109,0.0123,0.0127,0.0108,0.0106,0.0093,0.0076,0.0067,0.0038,0.0006,-0.0018,-0.0029,-0.0056,-0.0063,-0.0086,-0.0065,-0.0059,-0.0054,-0.0034,-0.0058,-0.0052,-0.0115,-0.0115,-0.0115,0,0,0.0111,0.0114,0.0119,0.0127,0.0123,0.0139,0.0105,0.0111,0.0122,0.0062,0.0064,0.0026,-0.0016,-0.0026,-0.0033,-0.0046,-0.0051,-0.0053,-0.0048,-0.0031,-0.0056,-0.005,-0.0044,-0.0114,-0.0114,-0.0114,0,0,0.0144,0.0141,0.0165,0.0169,0.0173,0.0163,0.017,0.0157,0.015,0.0145,0.0103,0.0081,0.0041,0.002,0.0002,0.0023,-0.0021,0.0003,0.006,0.0037,0.0042,0.0047,0.002,0.0021,0.0007,0.0007,0.0007,0,0.0156,0.0183,0.0172,0.0198,0.0209,0.0181,0.021,0.0202,0.0183,0.0183,0.0156,0.0104,0.0068,0.0062,0.0066,0.0039,0.0013,0.004,0.0046,0.005,0.0053,0.0024,0.0025,0.0011,0.0011,0.001,0.001,0,0.0208,0.0228,0.0245,0.0268,0.0277,0.0296,0.0291,0.0296,0.0276,0.0258,0.0246,0.0194,0.0165,0.0144,0.0112,0.0116,0.0086,0.0056,0.0035,0.0065,0.0031,0.0031,0.0017,0.0015,0.0014,0.0013,0,0,0.0242,0.0275,0.0282,0.0305,0.0315,0.0332,0.0356,0.0369,0.0386,0.0351,0.0366,0.0316,0.0278,0.0256,0.0207,0.0189,0.0183,0.0139,0.0136,0.0123,0.0127,0.0109,0.0106,0.015,0.0151,0.0151,0.0092,0,0.0288,0.0348,0.035,0.0406,0.0436,0.0426,0.0454,0.0458,0.0443,0.0449,0.0399,0.0385,0.0323,0.0307,0.028,0.0206,0.0186,0.0202,0.0091,0.0088,0.0078,0.0107,0.0133,0.0084,0.0092,0.0091,0.0091,0,0.034,0.0374,0.0436,0.0479,0.0493,0.0521,0.0559,0.0578,0.0574,0.0561,0.0536,0.0486,0.0456,0.0398,0.0303,0.0312,0.0235,0.0176,0.0171,0.0133,0.007,0.0055,0.0082,-0.0024,0.009,0.009,0.009,0,0.0376,0.0435,0.0486,0.0501,0.0546,0.0578,0.0602,0.0612,0.0645,0.0635,0.0647,0.0581,0.0561,0.0462,0.0333,0.0317,0.0225,0.0182,0.0096,0.0093,0.0086,0.0082,0.0011,0.0129,0.0129,0.0129,0.0129,0,0.0423,0.0466,0.0511,0.0542,0.0615,0.0626,0.0697,0.0706,0.0733,0.0787,0.0709,0.0733,0.0577,0.05,0.037,0.0236,0.0249,0.0122,0.0085,0.0111,0.011,-0.0008,-0.0093,0.0127,0.0128,0.0128,0.0128,0,0.0457,0.0481,0.0549,0.061,0.0636,0.0691,0.0774,0.0824,0.0834,0.0905,0.0911,0.0851,0.0753,0.0586,0.0423,0.0296,0.009,0.0107,0.0147,0.0116,-0.0062,-0.0144,-0.0256,-0.0329,0.001,0.0009,0.0009,0,0.0479,0.0518,0.0604,0.0654,0.0689,0.0771,0.0835,0.0875,0.094,0.099,0.1037,0.096,0.0939,0.068,0.0435,0.0207,0.0075,0.0072,0.0052,-0.0051,-0.0171,-0.0214,-0.0271,0.0064,0.0064,0.0064,0.0064,0,0.0525,0.0555,0.0613,0.072,0.0799,0.0897,0.0994,0.1069,0.1133,0.1192,0.1261,0.1247,0.1006,0.0796,0.0464,0.029,-0.0006,0.0064,-0.005,-0.013,-0.0175,-0.0269,0.0071,0.0063,0.0063,0.0063,0.0063,0.0063,0.0559,0.0609,0.0689,0.0796,0.089,0.1024,0.1126,0.1234,0.136,0.1489,0.145,0.1476,0.1157,0.0716,0.0444,0.0006,-0.0017,-0.0105,-0.0196,-0.0229,-0.0294,0.0047,-0.0001,-0.0001,-0.0001,-0.0002,-0.0002,0,0.0603,0.0666,0.0762,0.0894,0.1011,0.1056,0.1233,0.135,0.1519,0.164,0.1708,0.1603,0.1183,0.0745,0.0145,-0.0172,-0.0296,-0.0349,-0.0401,-0.045,-0.0142,-0.0132,-0.0201,-0.0201,-0.0201,-0.0201,-0.0201,-0.0201,0.0626,0.0722,0.0778,0.0978,0.1077,0.1257,0.1372,0.154,0.1674,0.1861,0.1921,0.1938,0.1653,0.0526,-0.0199,-0.04,-0.0631,-0.0673,-0.0805,-0.0586,-0.0569,-0.0553,-0.0561,-0.0719,-0.072,-0.1044,-0.1048,-0.1051]}],[{"header":{"parameterUnit":"m.s-1","parameterCategory":2,"la1":30.2991,"la2":30.254,"lo1":-89.0895,"lo2":-89.0444,"dy":0.0017,"dx":0.0017,"nx":28,"ny":28,"refTime":"2024-04-11T21:00:00:Z","depth":"2","parameterNumber":2,"parameterNumberName":"U-component_of_CURRENTS"},"data":[0,0,0,0,0,0,0,0,0,0,0,0,0,0,0,0,0,0,0,0,0,0,0,0,0,0,0,0,0,0,0,0,0,0,0,0,0,0,0,0,0,0,0,0,0,0,0,0,0,0,0,0,0,0,0,0,0,0,0.2592,0.2593,0,0.2643,0.2643,0.2644,0.2665,0.2665,0.2665,0.2665,0.2721,0.2723,0.2724,0,0,0,0,0,0,0,0,0,0,0,0,0,0.2574,0.2574,0.2592,0.2593,0.2594,0.2643,0.2643,0.2644,0.2665,0.2665,0.2665,0.2665,0.2721,0.2722,0.2724,0,0,0,0,0,0,0,0,0,0,0,0,0,0.2597,0.2573,0.2592,0.2611,0.2614,0.2642,0.2643,0.2644,0.2665,0.2665,0.2665,0.2665,0.272,0.2722,0.2724,0.2736,0,0,0.2731,0.2732,0,0,0,0,0,0,0,0,0.2596,0.2598,0.2608,0.261,0.2613,0.2649,0.2658,0.2676,0.2665,0.2644,0.2665,0.2665,0.2699,0.2702,0.271,0.2739,0.2741,0.2731,0.2733,0.2734,0.2734,0,0,0,0,0,0,0,0.2594,0.2596,0.261,0.2608,0.2612,0.2638,0.2641,0.2661,0.2669,0.2646,0.2648,0.2656,0.27,0.2707,0.2711,0.2742,0.2731,0.2733,0.2734,0.2735,0.2832,0.2833,0,0,0,0,0,0,0.2588,0.2594,0.2609,0.2612,0.2606,0.2638,0.2641,0.2636,0.2669,0.2674,0.2656,0.2657,0.2704,0.2708,0.2713,0.2776,0.2734,0.2736,0.2737,0.2831,0.2832,0.2833,0,0,0,0,0,0,0.2587,0.2588,0.2607,0.2607,0.2611,0.2638,0.2632,0.2637,0.2658,0.2677,0.2682,0.2674,0.2704,0.271,0.2743,0.2777,0.2737,0.2739,0.2829,0.2831,0.2833,0.2872,0,0,0,0,0,0,0.2586,0.2587,0.259,0.2605,0.2611,0.2632,0.2633,0.2638,0.2663,0.2665,0.2694,0.2698,0.2704,0.274,0.2746,0.2779,0.274,0.2827,0.283,0.2832,0.2869,0.2875,0.288,0,0,0,0,0,0.2585,0.2588,0.259,0.2592,0.261,0.2633,0.2639,0.2658,0.2664,0.2676,0.2696,0.2698,0.2759,0.2743,0.2749,0.2784,0.2826,0.2829,0.2832,0.2867,0.2874,0.288,0,0,0,0,0,0,0.2574,0.2591,0.2593,0.2598,0.2618,0.2638,0.2654,0.2666,0.2692,0.2695,0.2711,0.2717,0.2764,0.2765,0.2746,0.2818,0.2795,0.2799,0.2819,0.2826,0.2831,0.2774,0.2742,0,0,0,0,0,0.2574,0.2591,0.26,0.2612,0.2616,0.2637,0.2652,0.2664,0.2685,0.2697,0.2718,0.2744,0.2779,0.2794,0.282,0.2853,0.2835,0.288,0.2886,0.289,0.2848,0.2859,0.2861,0.2843,0.2843,0.2843,0,0,0.2574,0.2589,0.2597,0.2614,0.2628,0.2633,0.2646,0.267,0.2684,0.2699,0.2731,0.2767,0.2793,0.2836,0.2857,0.2841,0.2895,0.2894,0.2898,0.2852,0.2862,0.2863,0.2865,0.2845,0.2844,0.2844,0,0,0.2577,0.2592,0.2597,0.2612,0.2637,0.2648,0.2656,0.268,0.27,0.2732,0.2758,0.2799,0.2844,0.2869,0.2888,0.2934,0.2928,0.2963,0.294,0.2953,0.2954,0.2954,0.2964,0.2965,0.2961,0.2961,0.2961,0,0.2582,0.2577,0.2605,0.261,0.2622,0.2652,0.2651,0.2677,0.2714,0.273,0.2743,0.2818,0.2852,0.2897,0.2916,0.2945,0.2946,0.2917,0.2958,0.2958,0.2957,0.2967,0.2967,0.2963,0.2963,0.2963,0.2963,0,0.2569,0.2577,0.2584,0.2597,0.2617,0.2629,0.2656,0.2686,0.2715,0.2734,0.279,0.2835,0.2872,0.2912,0.2924,0.2956,0.2958,0.297,0.2936,0.2961,0.2971,0.297,0.2967,0.2966,0.2965,0.2965,0,0,0.2545,0.257,0.257,0.2578,0.261,0.2624,0.2655,0.2682,0.2711,0.2747,0.2783,0.284,0.2863,0.2882,0.2928,0.2932,0.2958,0.2942,0.2942,0.294,0.2983,0.2971,0.2969,0.2981,0.2981,0.298,0.3002,0,0.2524,0.2529,0.2547,0.256,0.2561,0.2604,0.2634,0.2671,0.2717,0.2766,0.2804,0.2863,0.2857,0.2905,0.2901,0.2964,0.2952,0.2949,0.2965,0.2965,0.2942,0.2966,0.2749,0.2748,0.3001,0.3001,0.3001,0,0.2488,0.2503,0.2505,0.2547,0.2551,0.2569,0.2629,0.2663,0.2731,0.2771,0.2806,0.2854,0.2892,0.2889,0.292,0.2922,0.2927,0.2948,0.295,0.2907,0.295,0.2759,0.2737,0.3,0.3,0.3,0.3,0,0.2451,0.2471,0.2478,0.249,0.2538,0.2559,0.2593,0.266,0.2702,0.2786,0.2834,0.2867,0.2924,0.2916,0.2954,0.2946,0.2979,0.2988,0.2962,0.2963,0.2758,0.2741,0.2957,0.2957,0.2957,0.2957,0.2957,0,0.2418,0.2423,0.2465,0.2471,0.2494,0.2541,0.2583,0.2635,0.2715,0.2764,0.2835,0.2889,0.293,0.2967,0.2961,0.2965,0.2985,0.2936,0.2959,0.2772,0.2757,0.2949,0.2948,0.2958,0.2958,0.2958,0.2958,0,0.2374,0.2399,0.2412,0.2461,0.2478,0.25,0.2572,0.2605,0.2699,0.2776,0.281,0.2916,0.2977,0.3005,0.3034,0.2996,0.3,0.2984,0.2765,0.2761,0.2966,0.2967,0.2953,0.2952,0.2952,0.2952,0.2952,0,0.235,0.2353,0.2398,0.2405,0.2427,0.2467,0.2493,0.2585,0.2631,0.2783,0.2818,0.2925,0.2976,0.3027,0.2987,0.297,0.3009,0.2753,0.2684,0.2938,0.2962,0.2963,0.2965,0.2439,0.2435,0.2431,0.2428,0,0.2306,0.2327,0.2337,0.2355,0.2377,0.2402,0.2457,0.2489,0.2606,0.2685,0.2785,0.2847,0.292,0.2824,0.2829,0.2781,0.2744,0.2682,0.299,0.2492,0.246,0.2483,0.2499,0.2396,0.2399,0.2402,0.2403,0.2405,0.2271,0.2264,0.2279,0.2287,0.2308,0.232,0.2312,0.2388,0.2449,0.2531,0.266,0.2671,0.2698,0.2602,0.251,0.2426,0.2613,0.2479,0.2487,0.2499,0.2453,0.2424,0.2345,0.2347,0.235,0.2352,0.2354,0,0.2206,0.2202,0.2206,0.2201,0.2179,0.2231,0.2264,0.2236,0.2264,0.2368,0.2432,0.2251,0.2212,0.2217,0.2049,0.2049,0.1982,0.1957,0.1848,0.1885,0.1916,0.1836,0.1566,0.1563,0.156,0.1557,0,0,0.2168,0.2133,0.2128,0.2066,0.2064,0.2009,0.2004,0.1992,0.2025,0.2005,0.1991,0.2156,0.2201,0.1872,0.1828,0.1668,0.1755,0.1597,0.2242,0.2155,0.2182,0.2244,0.2167,0,0,0,0,0]},{"header":{"parameterUnit":"m.s-1","parameterCategory":2,"la1":30.2991,"la2":30.254,"lo1":-89.0895,"lo2":-89.0444,"dy":0.0017,"dx":0.0017,"nx":28,"ny":28,"refTime":"2024-04-11T21:00:00:Z","depth":"2","parameterNumber":3,"parameterNumberName":"V-component_of_CURRENTS"},"data":[0,0,0,0,0,0,0,0,0,0,0,0,0,0,0,0,0,0,0,0,0,0,0,0,0,0,0,0,0,0,0,0,0,0,0,0,0,0,0,0,0,0,0,0,0,0,0,0,0,0,0,0,0,0,0,0,0,0,0.0253,0.0253,0,0.021,0.0209,0.0209,0.0164,0.0164,0.0164,0.0164,0.0095,0.0093,0.0092,0,0,0,0,0,0,0,0,0,0,0,0,0,0.0232,0.0233,0.0253,0.0253,0.0252,0.021,0.0209,0.0208,0.0165,0.0164,0.0164,0.0163,0.0095,0.0093,0.0092,0,0,0,0,0,0,0,0,0,0,0,0,0,0.0218,0.0233,0.0253,0.0228,0.0225,0.021,0.0209,0.0208,0.0165,0.0164,0.0164,0.0163,0.0096,0.0094,0.0091,0.0087,0,0,0.0084,0.0083,0,0,0,0,0,0,0,0,0.0219,0.0218,0.0232,0.0229,0.0227,0.0195,0.0177,0.0167,0.0165,0.0184,0.0164,0.0163,0.0128,0.0123,0.0112,0.0083,0.008,0.0084,0.0083,0.0082,0.0081,0,0,0,0,0,0,0,0.022,0.022,0.0233,0.0231,0.0228,0.0197,0.0194,0.0174,0.0157,0.0183,0.018,0.018,0.0126,0.0114,0.011,0.0079,0.0084,0.0082,0.0081,0.008,0.0044,0.0045,0,0,0,0,0,0,0.0236,0.0221,0.0234,0.0232,0.0225,0.0198,0.0195,0.0203,0.0157,0.0151,0.0181,0.0179,0.0119,0.0113,0.0108,0.0109,0.0082,0.008,0.0078,0.0044,0.0044,0.0045,0,0,0,0,0,0,0.0235,0.0237,0.0236,0.0227,0.0225,0.02,0.0208,0.0202,0.0192,0.0157,0.0149,0.0176,0.0118,0.0111,0.0099,0.0105,0.0078,0.0076,0.0043,0.0044,0.0045,0.0105,0,0,0,0,0,0,0.0235,0.0238,0.0245,0.0229,0.0226,0.0236,0.0209,0.0202,0.0194,0.019,0.0151,0.0144,0.0117,0.0103,0.0097,0.0102,0.0075,0.0043,0.0044,0.0044,0.0103,0.0108,0.0112,0,0,0,0,0,0.0235,0.0252,0.0246,0.0247,0.0239,0.0237,0.0233,0.021,0.0195,0.0196,0.0171,0.0145,0.0103,0.0102,0.0095,0.0099,0.0042,0.0043,0.0044,0.0101,0.0107,0.0112,0,0,0,0,0,0,0.0248,0.0249,0.0242,0.0259,0.0252,0.0231,0.0232,0.0215,0.0196,0.0191,0.0153,0.0145,0.0134,0.0111,0.011,0.0091,0.0067,0.0067,0.0112,0.0118,0.0123,0.015,0.0073,0,0,0,0,0,0.0256,0.0266,0.0262,0.0273,0.0275,0.0253,0.0248,0.0235,0.0218,0.0208,0.0181,0.0153,0.0133,0.0123,0.0099,0.0093,0.0071,0.009,0.0095,0.0099,0.0116,0.009,0.0094,0.0048,0.0048,0.0048,0,0,0.0262,0.0266,0.027,0.0276,0.0268,0.028,0.0248,0.0248,0.0256,0.0205,0.0203,0.0168,0.0135,0.0126,0.0119,0.0108,0.0098,0.01,0.0104,0.0119,0.0092,0.0096,0.01,0.0049,0.0049,0.0048,0,0,0.0287,0.0288,0.0306,0.0308,0.0307,0.0298,0.0302,0.0286,0.0278,0.0273,0.0236,0.0216,0.0182,0.0163,0.0148,0.0168,0.0123,0.015,0.0199,0.0173,0.0177,0.018,0.015,0.015,0.0155,0.0155,0.0155,0,0.0293,0.032,0.031,0.033,0.0338,0.0312,0.0335,0.0326,0.0306,0.0306,0.0283,0.0236,0.0204,0.0199,0.0203,0.018,0.0154,0.018,0.018,0.0183,0.0185,0.0153,0.0152,0.0158,0.0157,0.0157,0.0157,0,0.0333,0.0353,0.0365,0.0385,0.0391,0.0405,0.0401,0.0403,0.0386,0.037,0.0357,0.0313,0.0286,0.0267,0.0242,0.024,0.0212,0.0188,0.0168,0.0194,0.0158,0.0156,0.0162,0.0161,0.016,0.0159,0,0,0.0355,0.0387,0.0392,0.0415,0.0422,0.0437,0.0457,0.0468,0.0483,0.045,0.0462,0.0418,0.0382,0.0364,0.0321,0.0301,0.0286,0.0256,0.0254,0.0232,0.0223,0.0201,0.0196,0.0256,0.0256,0.0256,0.0189,0,0.039,0.0442,0.0447,0.0496,0.0524,0.0517,0.0542,0.0545,0.0533,0.0536,0.0491,0.0478,0.0422,0.0408,0.0379,0.0309,0.0285,0.0306,0.0197,0.0194,0.0176,0.0195,0.0207,0.0148,0.0186,0.0186,0.0186,0,0.043,0.0463,0.0519,0.0564,0.0576,0.0601,0.0638,0.0655,0.065,0.0638,0.0612,0.0567,0.0534,0.0483,0.0385,0.0398,0.0323,0.0266,0.0261,0.0224,0.017,0.0129,0.0142,0.0182,0.0182,0.0183,0.0183,0,0.0461,0.0514,0.0564,0.0579,0.0623,0.0653,0.0675,0.0685,0.0715,0.0703,0.0714,0.0648,0.0627,0.0529,0.0405,0.0393,0.0294,0.0259,0.017,0.0167,0.015,0.0145,0.02,0.02,0.02,0.0201,0.0201,0,0.05,0.054,0.0586,0.0616,0.0686,0.0697,0.0763,0.0771,0.0795,0.0844,0.0769,0.0787,0.0639,0.056,0.0435,0.0299,0.0312,0.019,0.0154,0.0169,0.0167,0.0177,0.0175,0.0198,0.0199,0.0199,0.0199,0,0.0529,0.0554,0.0619,0.0679,0.0704,0.0756,0.0835,0.0882,0.0888,0.0952,0.0956,0.0894,0.0791,0.063,0.0469,0.0348,0.0213,0.016,0.0185,0.0155,0.0093,0.0095,0.0058,0.0057,0.0056,0.0055,0.0054,0,0.0548,0.0586,0.067,0.0718,0.0751,0.0829,0.089,0.0928,0.0988,0.1027,0.1069,0.0986,0.0954,0.0696,0.0461,0.0237,0.0207,0.0096,0.0082,0.0113,0.0081,0.0085,0.0088,0.0073,0.0073,0.0072,0.0072,0,0.0589,0.0618,0.0674,0.0777,0.0852,0.0946,0.1037,0.1105,0.1164,0.1212,0.1264,0.1239,0.0998,0.0771,0.0449,0.0291,0.013,0.0081,0.0108,0.0112,0.0123,0.0094,0.0097,0.0069,0.0069,0.0069,0.0069,0.007,0.0618,0.0666,0.0743,0.0844,0.0935,0.1059,0.1154,0.1251,0.1362,0.1456,0.1417,0.1375,0.1109,0.0699,0.0415,0.0102,0.0127,0.0017,0.002,0.0023,0.0042,0.005,-0.0015,-0.0015,-0.0015,-0.0015,-0.0015,0,0.0655,0.0715,0.0808,0.0933,0.1043,0.1088,0.1252,0.1349,0.1493,0.1557,0.1595,0.1328,0.1059,0.0737,0.0286,0.0031,0.0005,-0.0068,-0.0035,-0.0029,-0.0025,-0.0008,-0.0078,-0.0079,-0.008,-0.0081,0,0,0.0675,0.0765,0.0819,0.1004,0.11,0.1265,0.137,0.1502,0.1587,0.1658,0.1624,0.1559,0.1163,0.0826,0.0465,0.0198,0.0144,0.0135,0.0215,0.0304,0.0312,0.0052,0.0088,0,0,0,0,0]}],[{"header":{"parameterUnit":"m.s-1","parameterCategory":2,"la1":30.2991,"la2":30.254,"lo1":-89.0895,"lo2":-89.0444,"dy":0.0017,"dx":0.0017,"nx":28,"ny":28,"refTime":"2024-04-11T21:00:00:Z","depth":"4","parameterNumber":2,"parameterNumberName":"U-component_of_CURRENTS"},"data":[0,0,0,0,0,0,0,0,0,0,0,0,0,0,0,0,0,0,0,0,0,0,0,0,0,0,0,0,0,0,0,0,0,0,0,0,0,0,0,0,0,0,0,0,0,0,0,0,0,0,0,0,0,0,0,0,0,0,0.1509,0.151,0,0.1586,0.1587,0.1587,0.1634,0.1635,0.1636,0.1637,0.1669,0.1669,0.1669,0,0,0,0,0,0,0,0,0,0,0,0,0,0.1402,0.1404,0.1509,0.151,0.1512,0.1586,0.1587,0.1587,0.1634,0.1635,0.1636,0.1637,0.1669,0.1669,0.1669,0,0,0,0,0,0,0,0,0,0,0,0,0,0.1455,0.1404,0.1509,0.1549,0.1553,0.1586,0.1587,0.1587,0.1634,0.1635,0.1636,0.1637,0.1669,0.1669,0.1669,0.1648,0,0,0.167,0.167,0,0,0,0,0,0,0,0,0.1452,0.1459,0.1541,0.1546,0.1551,0.1607,0.1562,0.1607,0.1634,0.1597,0.1637,0.1638,0.1647,0.1649,0.1654,0.1649,0.1651,0.167,0.167,0.167,0.167,0,0,0,0,0,0,0,0.1449,0.1456,0.1534,0.1543,0.1549,0.1563,0.1571,0.157,0.1609,0.1601,0.1606,0.1623,0.1649,0.1653,0.1655,0.1651,0.167,0.167,0.167,0.1671,0.1745,0.1747,0,0,0,0,0,0,0.145,0.1452,0.1531,0.1537,0.151,0.1565,0.1573,0.1583,0.1611,0.1618,0.1622,0.1625,0.1652,0.1654,0.1656,0.1723,0.167,0.1671,0.1671,0.1744,0.1746,0.1748,0,0,0,0,0,0,0.1447,0.1455,0.1528,0.1501,0.1512,0.1566,0.1576,0.1584,0.1626,0.1629,0.1634,0.166,0.1653,0.1656,0.1689,0.1721,0.1671,0.1671,0.1741,0.1744,0.1747,0.1799,0,0,0,0,0,0,0.1443,0.1454,0.1476,0.1501,0.1514,0.157,0.1576,0.1585,0.1636,0.1641,0.1662,0.1665,0.1654,0.1689,0.169,0.1721,0.1671,0.1739,0.1743,0.1746,0.1795,0.1803,0.181,0,0,0,0,0,0.1439,0.1462,0.1476,0.1487,0.1537,0.1571,0.1579,0.1617,0.1637,0.1657,0.1678,0.1666,0.1712,0.1691,0.1691,0.1723,0.1737,0.1742,0.1746,0.1792,0.1802,0.181,0,0,0,0,0,0,0.1437,0.1471,0.1486,0.1522,0.1555,0.1582,0.162,0.1636,0.1669,0.1688,0.1681,0.1685,0.1728,0.1721,0.1697,0.1758,0.1726,0.173,0.1761,0.177,0.1778,0.1794,0.1671,0,0,0,0,0,0.1444,0.1464,0.1501,0.1532,0.1559,0.1593,0.162,0.1644,0.1672,0.169,0.1702,0.1721,0.1739,0.1752,0.1763,0.1789,0.1789,0.1814,0.1821,0.1828,0.1843,0.1873,0.1884,0.1762,0.1762,0.1761,0,0,0.1454,0.1475,0.149,0.1533,0.1568,0.1605,0.1613,0.1667,0.1698,0.1685,0.1739,0.1749,0.1753,0.1788,0.1807,0.1789,0.1862,0.1833,0.1838,0.1851,0.1878,0.189,0.1901,0.1764,0.1764,0.1763,0,0,0.1475,0.1506,0.1534,0.1564,0.1623,0.1641,0.1664,0.1709,0.1739,0.1783,0.1786,0.1823,0.1844,0.1855,0.1862,0.1921,0.1903,0.1926,0.1975,0.2003,0.2013,0.2022,0.203,0.2039,0.1928,0.1928,0.1928,0,0.149,0.152,0.155,0.1588,0.1618,0.1661,0.17,0.1734,0.178,0.1805,0.1815,0.1874,0.188,0.192,0.1946,0.1939,0.1944,0.1934,0.2012,0.2021,0.2029,0.2036,0.2045,0.1931,0.1931,0.193,0.193,0,0.1527,0.1561,0.1588,0.1638,0.1675,0.1716,0.1766,0.181,0.1851,0.1876,0.1941,0.1957,0.1992,0.2001,0.1994,0.2054,0.2035,0.2017,0.1985,0.2045,0.2047,0.2056,0.1935,0.1934,0.1933,0.1933,0,0,0.1528,0.1595,0.1608,0.1632,0.1703,0.1731,0.18,0.1857,0.1907,0.196,0.2016,0.2062,0.2081,0.2092,0.209,0.212,0.218,0.2101,0.2101,0.2102,0.2234,0.209,0.2085,0.2174,0.2176,0.2178,0.2209,0,0.1549,0.1601,0.1638,0.1696,0.1727,0.1784,0.1836,0.1898,0.1955,0.2019,0.2064,0.2119,0.2112,0.2141,0.2172,0.2182,0.2208,0.2173,0.2182,0.2183,0.2042,0.2093,0.2185,0.2215,0.2217,0.2219,0.222,0,0.1568,0.1598,0.1652,0.1709,0.1735,0.1784,0.1873,0.1928,0.2025,0.2073,0.2144,0.2177,0.2245,0.2228,0.2287,0.2265,0.2264,0.2264,0.2265,0.2121,0.2055,0.2146,0.2235,0.2234,0.2233,0.2232,0.2231,0,0.1528,0.1602,0.1637,0.1661,0.1744,0.1794,0.1852,0.1951,0.2006,0.2122,0.2177,0.2248,0.2302,0.2325,0.234,0.2324,0.2387,0.2356,0.2223,0.2212,0.2308,0.2298,0.2398,0.2398,0.2398,0.2398,0.2398,0,0.1503,0.1539,0.1629,0.1648,0.171,0.1784,0.1867,0.1941,0.205,0.2113,0.2209,0.2259,0.2335,0.2373,0.2368,0.2321,0.2411,0.2243,0.2216,0.2328,0.232,0.2313,0.2303,0.2399,0.2399,0.2399,0.2399,0,0.1446,0.1502,0.1551,0.1651,0.1691,0.1743,0.1872,0.1924,0.2045,0.2135,0.2179,0.2293,0.2342,0.2384,0.2421,0.2342,0.2319,0.2277,0.2398,0.2376,0.2117,0.211,0.2129,0.2124,0.212,0.2117,0.2114,0,0.1412,0.1433,0.1546,0.1582,0.1636,0.1726,0.1783,0.1911,0.1968,0.213,0.2158,0.2262,0.2316,0.2249,0.2306,0.228,0.225,0.2214,0.2164,0.2121,0.2093,0.2092,0.209,0.2108,0.2107,0.2105,0.2104,0,0.135,0.1409,0.1449,0.1525,0.1593,0.1654,0.1751,0.1776,0.1918,0.2045,0.2079,0.2097,0.2145,0.2157,0.2153,0.2132,0.2224,0.2171,0.2179,0.2132,0.2095,0.2072,0.2074,0.2091,0.2093,0.2094,0.2095,0,0.1312,0.1325,0.1391,0.1445,0.1523,0.1555,0.1617,0.1674,0.174,0.1914,0.1919,0.2023,0.2127,0.208,0.2079,0.2047,0.201,0.1923,0.1943,0.1959,0.1887,0.1814,0.1709,0,0,0,0,0,0.1259,0.1258,0.1302,0.1347,0.142,0.1468,0.1578,0.1643,0.1778,0.1753,0.183,0.1864,0.1866,0.1919,0.185,0.2003,0.2019,0.1912,0.193,0.2014,0.203,0.196,0,0,0,0,0,0,0.1218,0.1253,0.1262,0.1254,0.1268,0.1334,0.1398,0.1493,0.1488,0.163,0.1643,0.1744,0.1778,0.1884,0.1812,0.1826,0.1795,0.1979,0.1973,0.2005,0.202,0.2032,0.1966,0,0,0,0,0]},{"header":{"parameterUnit":"m.s-1","parameterCategory":2,"la1":30.2991,"la2":30.254,"lo1":-89.0895,"lo2":-89.0444,"dy":0.0017,"dx":0.0017,"nx":28,"ny":28,"refTime":"2024-04-11T21:00:00:Z","depth":"4","parameterNumber":3,"parameterNumberName":"V-component_of_CURRENTS"},"data":[0,0,0,0,0,0,0,0,0,0,0,0,0,0,0,0,0,0,0,0,0,0,0,0,0,0,0,0,0,0,0,0,0,0,0,0,0,0,0,0,0,0,0,0,0,0,0,0,0,0,0,0,0,0,0,0,0,0,0.0342,0.0342,0,0.0325,0.0325,0.0325,0.0311,0.0311,0.0311,0.0311,0.0302,0.0302,0.0301,0,0,0,0,0,0,0,0,0,0,0,0,0,0.0324,0.0325,0.0342,0.0342,0.0342,0.0325,0.0325,0.0325,0.0311,0.0311,0.0311,0.0311,0.0302,0.0302,0.0301,0,0,0,0,0,0,0,0,0,0,0,0,0,0.0322,0.0325,0.0342,0.0333,0.0333,0.0325,0.0325,0.0325,0.0311,0.0311,0.0311,0.0311,0.0302,0.0302,0.0301,0.0302,0,0,0.0301,0.03,0,0,0,0,0,0,0,0,0.0322,0.0322,0.0335,0.0334,0.0333,0.0321,0.0316,0.0318,0.0311,0.0318,0.0311,0.031,0.0309,0.0309,0.0304,0.0302,0.0301,0.0301,0.03,0.03,0.03,0,0,0,0,0,0,0,0.0322,0.0323,0.0335,0.0335,0.0334,0.0318,0.0317,0.0316,0.0314,0.0318,0.0317,0.0316,0.0309,0.0305,0.0304,0.0301,0.0301,0.03,0.03,0.03,0.0306,0.0306,0,0,0,0,0,0,0.0328,0.0323,0.0335,0.0334,0.0328,0.0318,0.0318,0.0324,0.0314,0.0312,0.0316,0.0316,0.0305,0.0304,0.0304,0.032,0.03,0.03,0.03,0.0306,0.0306,0.0306,0,0,0,0,0,0,0.0328,0.033,0.0336,0.0328,0.0328,0.0319,0.0326,0.0324,0.0325,0.0313,0.0312,0.032,0.0305,0.0304,0.0311,0.0319,0.03,0.03,0.0305,0.0306,0.0306,0.0343,0,0,0,0,0,0,0.0328,0.033,0.0338,0.0329,0.0329,0.0338,0.0326,0.0324,0.0325,0.0324,0.0316,0.0314,0.0305,0.0311,0.031,0.0318,0.03,0.0305,0.0306,0.0306,0.0341,0.0344,0.0347,0,0,0,0,0,0.0327,0.034,0.0338,0.034,0.034,0.0339,0.0337,0.0329,0.0325,0.0329,0.0325,0.0315,0.0314,0.0311,0.031,0.0319,0.0305,0.0305,0.0306,0.034,0.0344,0.0347,0,0,0,0,0,0,0.0334,0.034,0.0337,0.0351,0.0348,0.0337,0.0341,0.0335,0.0334,0.0335,0.0322,0.0321,0.033,0.0319,0.0316,0.0321,0.0306,0.0307,0.0332,0.0336,0.0339,0.0344,0.0299,0,0,0,0,0,0.034,0.0355,0.035,0.0362,0.0361,0.0352,0.0351,0.0347,0.0344,0.0343,0.0337,0.0332,0.033,0.033,0.0327,0.0332,0.0308,0.0334,0.0337,0.034,0.0343,0.0314,0.0314,0.0309,0.0309,0.0309,0,0,0.0345,0.0352,0.0359,0.0365,0.0362,0.0367,0.0352,0.0356,0.0364,0.0343,0.0354,0.0345,0.0335,0.0341,0.0343,0.0334,0.0328,0.0341,0.0343,0.0345,0.0315,0.0315,0.0315,0.0309,0.0309,0.0309,0,0,0.0361,0.0369,0.0383,0.0385,0.0387,0.0383,0.0387,0.0381,0.0382,0.039,0.0377,0.0373,0.0373,0.0363,0.0359,0.0376,0.0347,0.0376,0.0394,0.0366,0.0366,0.0366,0.0333,0.0329,0.0375,0.0375,0.0375,0,0.0365,0.0387,0.0386,0.0397,0.0406,0.0394,0.0407,0.0406,0.0403,0.0408,0.0401,0.0394,0.0383,0.0385,0.039,0.0383,0.0361,0.0383,0.037,0.0369,0.0368,0.0334,0.033,0.0377,0.0377,0.0377,0.0376,0,0.0386,0.0406,0.0415,0.043,0.0437,0.0449,0.0448,0.0456,0.0457,0.0449,0.0454,0.0435,0.0429,0.0423,0.0413,0.0405,0.0388,0.0379,0.0361,0.0371,0.0334,0.0329,0.038,0.0379,0.0378,0.0378,0,0,0.0392,0.0424,0.0429,0.045,0.046,0.0472,0.0488,0.05,0.0514,0.0501,0.0515,0.0497,0.0479,0.0473,0.0453,0.0426,0.0397,0.0403,0.0401,0.0371,0.033,0.0304,0.0295,0.0385,0.0384,0.0384,0.0305,0,0.041,0.0449,0.0458,0.0498,0.0519,0.0524,0.0544,0.0552,0.0552,0.056,0.0532,0.0535,0.05,0.0501,0.0467,0.0421,0.0386,0.0419,0.0324,0.0321,0.0297,0.0289,0.0382,0.0301,0.0299,0.0298,0.0298,0,0.0426,0.0456,0.05,0.0549,0.0558,0.058,0.0618,0.0634,0.0634,0.0633,0.0617,0.0592,0.0559,0.0529,0.0437,0.0461,0.0399,0.0353,0.0349,0.0309,0.0285,0.0288,0.0288,0.0289,0.029,0.029,0.0291,0,0.044,0.0487,0.0533,0.0547,0.0591,0.0621,0.0646,0.0658,0.0684,0.0679,0.069,0.0636,0.0621,0.0536,0.0436,0.0438,0.0329,0.0319,0.0232,0.0229,0.026,0.0261,0.0248,0.0248,0.0248,0.0248,0.0249,0,0.0459,0.0496,0.0549,0.0575,0.0637,0.0654,0.0713,0.0724,0.0747,0.0778,0.073,0.0732,0.0623,0.0549,0.0449,0.0321,0.0333,0.0231,0.0206,0.0277,0.0281,0.0256,0.0258,0.0245,0.0246,0.0247,0.0247,0,0.0468,0.05,0.0558,0.0621,0.0648,0.0693,0.077,0.0806,0.0818,0.0858,0.0862,0.0805,0.0703,0.0578,0.0436,0.0344,0.0223,0.0173,0.0254,0.0236,0.0137,0.0142,0.0069,0.0068,0.0066,0.0065,0.0064,0,0.0476,0.0508,0.0595,0.0638,0.0673,0.0747,0.0799,0.084,0.0881,0.0899,0.0918,0.0839,0.0781,0.0558,0.042,0.0215,0.0185,0.0116,0.0126,0.0135,0.0118,0.0125,0.0132,0.0062,0.0062,0.0061,0.0061,0,0.0492,0.0525,0.0575,0.0666,0.0735,0.0815,0.0891,0.0927,0.0974,0.0985,0.0959,0.0849,0.0729,0.0555,0.0392,0.0247,0.0158,0.0101,0.0103,0.0112,0.0125,0.0112,0.012,0.0056,0.0057,0.0058,0.0058,0,0.0502,0.0538,0.0608,0.0689,0.0777,0.086,0.0902,0.0952,0.0993,0.101,0.0995,0.0869,0.0798,0.057,0.0424,0.0273,0.0235,0.0183,0.018,0.0183,0.0237,0.0271,0.0223,0,0,0,0,0,0.0508,0.0551,0.0625,0.0717,0.0806,0.0863,0.0955,0.099,0.1036,0.1021,0.1011,0.0898,0.0678,0.0585,0.043,0.039,0.0204,0.0201,0.0142,0.0031,0.0036,0.0076,0,0,0,0,0,0,0.051,0.0576,0.0619,0.0729,0.0795,0.0899,0.0962,0.0993,0.0988,0.1003,0.0888,0.0843,0.063,0.0762,0.042,0.0376,0.0313,0.0104,0.01,0.0028,0.0032,0.0037,0.008,0,0,0,0,0]}]]